Location: Lac Echo
(45.9375°N, 75.4580°W)
Time: 18:24:25
(UTC-04:00)

Amateur Radio Satellites - All Passes

Search period start: 26 May 2016 17:54
Search period end: 27 May 2016 17:54
Location: Lac Echo, 45.9375°N, 75.4580°W

Satellite Date Start Highest point End Downlink Frequencies (MHz)
Time Altitude Azimuth
CUBESAT XI-V 26 May 18:03:32 18:07:58 39° 97° (E) 18:12:21 437.345
KKS-1 26 May 18:13:30 18:16:38 19° 298° (WNW) 18:19:45 437.445
CUTE-I 26 May 18:14:14 18:19:31 72° 73° (ENE) 18:24:50 437.470
DOVE 4 26 May 18:15:11 18:19:07 22° 64° (ENE) 18:22:57 437.250
MOZHAYETS 4 26 May 18:19:28 18:23:02 22° 296° (WNW) 18:26:35
O/OREOS (USA 219) 26 May 18:19:35 18:22:14 15° 47° (NE) 18:24:52 437.305
RS-15 26 May 18:19:50 18:31:10 77° 120° (ESE) 18:43:10 29.354- 29.394
AUBIESAT-1 26 May 18:20:49 18:22:07 11° 56° (NE) 18:23:25 437.475
BRITE-PL 26 May 18:24:44 18:30:23 89° 256° (WSW) 18:36:08 437.365/2234.400
M-CUBED/EXP-1 PRIME 26 May 18:25:10 18:27:35 16° 58° (ENE) 18:29:56 437.505
HO-68 26 May 18:29:03 18:34:17 23° 53° (NE) 18:39:31 435.675
LilacSat-2 26 May 18:50:29 18:54:11 49° 260° (W) 18:57:53 437.200
STARS 26 May 18:53:09 18:55:34 15° 300° (WNW) 18:57:58 437.465
STRAND 1 26 May 18:54:11 18:55:48 11° 87° (E) 18:57:24 437.568
Cosmos 2504 26 May 18:55:12 19:02:21 64° 283° (WNW) 19:09:59 435.465 / 435.565
CINEMA 3 26 May 18:55:53 18:58:47 16° 62° (ENE) 19:01:37 145.822/145.860
GOMX 1 26 May 18:55:57 19:01:28 90° 214° (SW) 19:06:53 467.674
NOAA 18 26 May 18:56:15 19:01:25 42° 261° (W) 19:06:36 137.9125
BEESAT 3 26 May 18:59:48 19:01:48 13° 32° (NNE) 19:03:48 437.485
YUBILEINY 26 May 19:06:19 19:12:41 22° 301° (WNW) 19:19:06 435.215
PCSat 26 May 19:06:31 19:11:58 69° 55° (NE) 19:17:22 145.827
Cubesat XI-IV 26 May 19:07:56 19:12:56 41° 262° (W) 19:17:58 437.490
NOAA 15 26 May 19:08:05 19:12:39 29° 265° (W) 19:17:17 137.62
CANX-2 26 May 19:13:56 19:17:12 22° 65° (ENE) 19:20:29 2200.000
SEEDS 26 May 19:19:42 19:22:25 17° 63° (ENE) 19:25:08 437.485
CUTE 1.7 + AOD 2 26 May 19:40:43 19:44:33 36° 70° (ENE) 19:48:26 437.475
CUBESAT XI-V 26 May 19:41:14 19:45:10 26° 295° (WNW) 19:49:04 437.345
DOVE 4 26 May 19:51:19 19:56:28 56° 260° (W) 20:01:26 437.250
AUBIESAT-1 26 May 19:52:01 19:56:10 82° 254° (WSW) 20:00:01 437.475
CUBEBUG 2 26 May 19:53:09 19:56:10 19° 64° (ENE) 19:59:08 437.445
CUTE-I 26 May 19:56:48 20:00:07 17° 270° (W) 20:03:27 437.470
M-CUBED/EXP-1 PRIME 26 May 19:57:41 20:01:51 58° 253° (WSW) 20:05:42 437.505
O/OREOS (USA 219) 26 May 19:57:44 20:02:14 79° 247° (WSW) 20:06:42 437.305
BEESAT 2 26 May 19:59:32 20:02:48 23° 40° (NE) 20:06:02 435.950
BRITE-PL 26 May 20:06:37 20:09:35 14° 274° (W) 20:12:36 437.365/2234.400
COMPASS 1 26 May 20:06:41 20:10:28 36° 70° (ENE) 20:14:18 437.405
AAUSAT CUBESAT 2 26 May 20:10:31 20:14:11 32° 69° (ENE) 20:17:53 437.432
HO-68 26 May 20:14:00 20:21:10 87° 253° (WSW) 20:28:22 435.675
PRISM 26 May 20:15:37 20:16:47 11° 89° (E) 20:17:57 437.425
UWE-3 26 May 20:23:32 20:27:05 26° 67° (ENE) 20:30:34 435.000/436.395/437.385
STRAND 1 26 May 20:30:33 20:35:44 85° 105° (ESE) 20:40:54 437.568
CINEMA 3 26 May 20:30:45 20:35:29 65° 259° (W) 20:40:01 145.822/145.860
FUNcube-1 26 May 20:31:25 20:34:29 20° 65° (ENE) 20:37:33 145.935
RS-15 26 May 20:33:47 20:44:46 45° 328° (NNW) 20:56:19 29.354- 29.394
BEESAT 3 26 May 20:36:15 20:40:13 72° 53° (NE) 20:44:09 437.485
GOMX 1 26 May 20:37:29 20:40:11 14° 273° (W) 20:42:52 467.674
CANX-2 26 May 20:48:56 20:52:51 37° 263° (W) 20:56:48 2200.000
DELFI C3 26 May 20:50:59 20:53:41 18° 64° (ENE) 20:56:24 145.870
PCSat 26 May 20:50:59 20:54:49 20° 254° (WSW) 20:58:38 145.827
SEEDS 26 May 20:53:41 20:57:44 51° 260° (W) 21:01:51 437.485
Cosmos 2504 26 May 20:54:22 20:57:40 13° 308° (NW) 21:01:02 435.465 / 435.565
GONETS M04 26 May 21:02:07 21:08:44 25° 79° (E) 21:15:18
Oscar 11 26 May 21:15:20 21:19:35 67° 74° (ENE) 21:23:53 145.826/435.025
CUTE 1.7 + AOD 2 26 May 21:17:11 21:20:30 22° 267° (W) 21:23:51 437.475
ZACube-1 26 May 21:27:28 21:31:42 79° 76° (ENE) 21:35:54 437.345
DANDE 26 May 21:27:39 21:31:39 14° 49° (NE) 21:35:37 436.750
CUBEBUG 2 26 May 21:28:14 21:32:29 48° 261° (W) 21:36:38 437.445
ISS 26 May 21:32:22 21:34:14 14° 134° (SE) 21:36:06 145.825
BEESAT 2 26 May 21:37:00 21:40:52 47° 240° (WSW) 21:44:41 435.950
Cosmos 2499 26 May 21:42:15 21:47:36 22° 79° (ENE) 21:53:11 435.465 / 435.565
COMPASS 1 26 May 21:42:55 21:46:09 22° 267° (W) 21:49:25 437.405
CUSAT 1 26 May 21:43:12 21:49:35 26° 59° (ENE) 21:55:20 437.405
AIST 1 26 May 21:43:15 21:47:37 70° 96° (E) 21:52:01
HUMSAT D 26 May 21:45:41 21:49:18 31° 68° (ENE) 21:52:55 437.325/437.525
AAUSAT CUBESAT 2 26 May 21:46:19 21:49:42 24° 266° (W) 21:53:08 437.432
PRISM 26 May 21:48:25 21:52:37 74° 286° (WNW) 21:56:46 437.425
UWE-3 26 May 21:59:34 22:03:28 32° 264° (W) 22:07:16 435.000/436.395/437.385
AIST 2 26 May 21:59:47 22:03:21 27° 42° (NE) 22:06:55 435.215
HO-68 26 May 22:05:26 22:09:52 17° 272° (W) 22:14:20 435.675
FUNcube-1 26 May 22:06:29 22:10:30 41° 262° (W) 22:14:28 145.935
STRAND 1 26 May 22:11:17 22:14:14 16° 303° (WNW) 22:17:11 437.568
AISAT 26 May 22:13:36 22:15:12 12° 57° (ENE) 22:16:48 437.250
BEESAT 3 26 May 22:15:43 22:17:21 12° 250° (WSW) 22:18:59 437.485
DELFI C3 26 May 22:24:28 22:28:14 43° 262° (W) 22:32:04 145.870
UKube-1 26 May 22:28:00 22:28:53 11° 57° (ENE) 22:29:45 .
UNISAT 6 26 May 22:29:40 22:32:38 18° 92° (E) 22:35:37 437.425
TIGRISAT 26 May 22:37:24 22:40:36 20° 93° (E) 22:43:49 435.000
ESTCUBE 1 26 May 22:44:50 22:48:46 30° 66° (ENE) 22:52:42 437.505/2401.250
RS-15 26 May 22:51:02 23:01:19 31° 2° (N) 23:11:54 29.354- 29.394
Oscar 11 26 May 22:54:15 22:56:11 13° 271° (W) 22:58:08 145.826/435.025
GONETS M04 26 May 22:55:45 23:04:34 79° 280° (W) 23:13:23
PHONESAT 2.4 26 May 23:02:05 23:03:51 14° 158° (SSE) 23:05:37 2401.200-2431.200
CUBEBUG 1 26 May 23:06:47 23:10:47 34° 68° (ENE) 23:14:49 437.445
ISS 26 May 23:06:59 23:10:15 89° 166° (SSE) 23:13:32 145.825
ZACube-1 26 May 23:08:10 23:08:32 10° 272° (W) 23:08:54 437.345
DANDE 26 May 23:08:26 23:16:38 52° 71° (ENE) 23:24:19 436.750
DX 1 26 May 23:09:20 23:13:12 31° 67° (ENE) 23:17:05 434.975-435.025
ANTELSAT 26 May 23:10:04 23:14:13 46° 99° (E) 23:18:23 437.575/2403.000
VELOX 1 26 May 23:10:57 23:15:04 37° 68° (ENE) 23:19:12 145.980
50 SAT 26 May 23:18:14 23:21:41 43° 72° (ENE) 23:25:11 437.505
HUMSAT D 26 May 23:21:37 23:24:58 24° 266° (W) 23:28:19 437.325/437.525
AIST 1 26 May 23:23:40 23:25:46 13° 295° (WNW) 23:27:51
CUSAT 1 26 May 23:24:45 23:32:43 80° 262° (W) 23:39:26 437.405
DUCHIFAT 1 26 May 23:26:32 23:28:05 12° 89° (E) 23:29:40 145.980
Cosmos 2499 26 May 23:32:30 23:39:45 74° 281° (W) 23:47:36 435.465 / 435.565
AIST 2 26 May 23:38:03 23:41:59 41° 241° (WSW) 23:45:52 435.215
SPROUT 26 May 23:38:39 23:42:21 29° 67° (ENE) 23:46:03 437.525
SO-50 26 May 23:46:09 23:47:14 11° 106° (ESE) 23:48:17 436.795
AISAT 26 May 23:46:30 23:50:58 89° 83° (E) 23:55:29 437.250
UKube-1 26 May 23:59:51 00:04:12 83° 73° (ENE) 00:08:33 .
POPSAT HIP 1 27 May 00:01:47 00:05:32 30° 96° (E) 00:09:15 437.405
QB50P1 27 May 00:02:16 00:06:02 31° 96° (E) 00:09:47 145.935-145.965
QB50P2 27 May 00:04:09 00:08:01 35° 97° (E) 00:11:52 145.880/145.840
UNISAT 6 27 May 00:05:29 00:09:36 46° 289° (WNW) 00:13:45 437.425
POLYITAN 1 27 May 00:06:36 00:10:29 35° 97° (E) 00:14:20 437.675
TISAT 1 27 May 00:07:19 00:10:13 18° 63° (ENE) 00:13:08 437.305
TIGRISAT 27 May 00:13:27 00:17:28 41° 290° (WNW) 00:21:31 435.000
NANOSAT C BR1 27 May 00:21:04 00:25:08 47° 99° (E) 00:29:11 145.865
ESTCUBE 1 27 May 00:21:30 00:25:31 31° 264° (W) 00:29:34 437.505/2401.250
PHONESAT 2.4 27 May 00:37:18 00:40:03 28° 174° (S) 00:42:48 2401.200-2431.200
JAS-2 27 May 00:40:25 00:46:02 22° 86° (E) 00:51:14 435.910
CUBEBUG 1 27 May 00:43:24 00:47:07 26° 265° (W) 00:50:52 437.445
ISS 27 May 00:43:59 00:46:59 31° 351° (N) 00:49:58 145.825
DX 1 27 May 00:45:35 00:49:23 28° 264° (W) 00:53:12 434.975-435.025
ANTELSAT 27 May 00:47:34 00:50:38 19° 296° (WNW) 00:53:44 437.575/2403.000
VELOX 1 27 May 00:48:01 00:51:38 24° 266° (W) 00:55:17 145.980
DANDE 27 May 00:51:36 00:59:23 43° 272° (W) 01:06:37 436.750
BEESAT 27 May 00:52:36 00:54:53 13° 57° (ENE) 00:57:10 436.000
50 SAT 27 May 00:53:43 00:55:40 14° 269° (W) 00:57:39 437.505
GONETS M04 27 May 00:57:06 01:03:01 19° 304° (WNW) 01:08:56
DUCHIFAT 1 27 May 01:00:06 01:04:16 68° 286° (WNW) 01:08:24 145.980
Oscar 19 27 May 01:03:48 01:05:02 11° 86° (E) 01:06:15 437.125/150
RS-15 27 May 01:05:59 01:17:44 48° 35° (NE) 01:29:32 29.354- 29.394
CUSAT 1 27 May 01:08:52 01:13:23 17° 284° (WNW) 01:17:35 437.405
SPROUT 27 May 01:14:30 01:18:15 29° 264° (W) 01:22:02 437.525
YUBILEINY 27 May 01:18:59 01:22:10 12° 48° (NE) 01:25:20 435.215
SO-50 27 May 01:21:59 01:26:52 75° 125° (SE) 01:31:47 436.795
BUGSAT 1 27 May 01:22:09 01:26:14 81° 283° (WNW) 01:30:15 437.445
AISAT 27 May 01:27:50 01:28:05 10° 273° (W) 01:28:21 437.250
Cosmos 2499 27 May 01:30:14 01:34:33 16° 305° (NW) 01:39:04 435.465 / 435.565
POPSAT HIP 1 27 May 01:37:43 01:41:14 26° 294° (WNW) 01:44:44 437.405
QB50P1 27 May 01:38:14 01:41:43 26° 294° (WNW) 01:45:11 145.935-145.965
UKube-1 27 May 01:40:08 01:40:49 10° 272° (W) 01:41:32 .
QB50P2 27 May 01:40:18 01:43:41 24° 294° (WNW) 01:47:03 145.880/145.840
TISAT 1 27 May 01:41:27 01:45:33 48° 260° (W) 01:49:39 437.305
POLYITAN 1 27 May 01:42:47 01:46:07 23° 295° (WNW) 01:49:27 437.675
SWISSCUBE 27 May 01:57:32 02:02:09 54° 71° (ENE) 02:06:49 437.505
NANOSAT C BR1 27 May 01:57:41 02:00:32 18° 297° (WNW) 02:03:23 145.865
ITUPSAT 1 27 May 02:03:12 02:07:50 55° 71° (ENE) 02:12:30 437.325
PHONESAT 2.4 27 May 02:13:44 02:16:22 25° 191° (S) 02:19:01 2401.200-2431.200
ISS 27 May 02:20:57 02:23:58 33° 11° (N) 02:26:58 145.825
JAS-2 27 May 02:24:18 02:31:57 79° 287° (WNW) 02:38:46 435.910
BEESAT 27 May 02:27:13 02:31:59 87° 259° (W) 02:36:47 436.000
Oscar 19 27 May 02:39:58 02:45:10 82° 104° (ESE) 02:50:19 437.125/150
STARS 27 May 02:41:54 02:42:48 11° 57° (ENE) 02:43:42 437.465
Cosmos 2504 27 May 02:52:24 02:56:03 13° 52° (NE) 02:59:47 435.465 / 435.565
Gurwin Techsat 1B 27 May 02:55:53 03:01:04 50° 99° (E) 03:06:14 435.225
SO-50 27 May 03:03:58 03:07:53 23° 324° (NW) 03:11:47 436.795
YUBILEINY 27 May 03:12:57 03:21:29 53° 74° (ENE) 03:30:00 435.215
RS-15 27 May 03:18:56 03:31:08 72° 241° (WSW) 03:43:17 29.354- 29.394
ITAMSAT 1 27 May 03:19:54 03:24:37 33° 96° (E) 03:29:19 435.822/435.867
KKS-1 27 May 03:36:09 03:40:35 63° 72° (ENE) 03:45:00 437.445
SWISSCUBE 27 May 03:36:58 03:40:17 19° 268° (W) 03:43:38 437.505
ITUPSAT 1 27 May 03:42:42 03:46:01 19° 269° (W) 03:49:21 437.325
AO-7 27 May 03:42:55 03:49:42 26° 93° (E) 03:56:25 29.400- 29.500
MOZHAYETS 4 27 May 03:45:43 03:50:10 56° 72° (ENE) 03:54:40
PHONESAT 2.4 27 May 03:51:53 03:52:29 10° 207° (SSW) 03:53:05 2401.200-2431.200
ISS 27 May 03:57:23 04:00:38 77° 210° (SSW) 04:03:54 145.825
BEESAT 27 May 04:09:38 04:10:29 10° 273° (W) 04:11:20 436.000
Cosmos 2491 27 May 04:10:18 04:18:46 54° 90° (E) 04:27:14 435.465 / 435.565
JAS-2 27 May 04:10:38 04:15:42 20° 309° (NW) 04:20:31 435.910
STARS 27 May 04:14:00 04:18:25 82° 76° (ENE) 04:22:51 437.465
Oscar 19 27 May 04:20:46 04:23:49 16° 303° (WNW) 04:26:54 437.125/150
Gurwin Techsat 1B 27 May 04:36:26 04:40:44 25° 298° (WNW) 04:45:01 435.225
Cosmos 2504 27 May 04:43:16 04:51:28 57° 76° (ENE) 05:00:04 435.465 / 435.565
HORYU 2 27 May 04:52:23 04:55:20 17° 92° (E) 04:58:16 437.375
ITAMSAT 1 27 May 04:59:21 05:04:05 36° 294° (WNW) 05:08:48 435.822/435.867
CUBESAT XI-V 27 May 05:08:54 05:13:24 49° 71° (ENE) 05:17:57 437.345
YUBILEINY 27 May 05:10:12 05:18:01 38° 275° (W) 05:25:51 435.215
AO-85 27 May 05:11:55 05:13:15 11° 105° (ESE) 05:14:36 145.980
KKS-1 27 May 05:15:05 05:17:34 15° 270° (W) 05:20:03 437.445
MOZHAYETS 4 27 May 05:24:48 05:27:42 17° 270° (W) 05:30:38
RS-15 27 May 05:33:47 05:41:20 19° 264° (W) 05:48:53 29.354- 29.394
AO-7 27 May 05:34:52 05:43:14 76° 292° (WNW) 05:51:34 29.400- 29.500
ISS 27 May 05:35:11 05:36:35 12° 227° (SW) 05:37:59 145.825
NOAA 15 27 May 05:42:24 05:44:29 12° 87° (E) 05:46:33 137.62
STARS 27 May 05:54:12 05:55:21 11° 272° (W) 05:56:30 437.465
Cosmos 2491 27 May 06:07:47 06:15:54 39° 291° (WNW) 06:24:02 435.465 / 435.565
STRAND 1 27 May 06:11:18 06:15:14 23° 61° (ENE) 06:19:10 437.568
LilacSat-2 27 May 06:22:33 06:24:40 14° 91° (E) 06:26:47 437.200
HORYU 2 27 May 06:27:53 06:32:12 52° 289° (WNW) 06:36:30 437.375
BRITE-PL 27 May 06:28:24 06:32:45 26° 92° (E) 06:36:46 437.365/2234.400
CUTE-I 27 May 06:29:21 06:33:37 23° 93° (E) 06:37:51 437.470
Cosmos 2504 27 May 06:37:09 06:44:32 36° 275° (W) 06:52:14 435.465 / 435.565
AO-85 27 May 06:47:28 06:52:53 68° 123° (ESE) 06:58:11 145.980
CUBESAT XI-V 27 May 06:47:39 06:51:04 20° 269° (W) 06:54:32 437.345
GOMX 1 27 May 06:56:49 07:00:28 22° 91° (E) 07:03:54 467.674
PRISM 27 May 07:07:24 07:09:14 13° 59° (ENE) 07:11:03 437.425
GONETS M04 27 May 07:08:24 07:12:40 14° 51° (NE) 07:16:53
NOAA 18 27 May 07:15:14 07:20:42 66° 103° (ESE) 07:26:09 137.9125
NOAA 15 27 May 07:19:41 07:25:02 87° 103° (ESE) 07:30:20 137.62
Cubesat XI-IV 27 May 07:22:06 07:27:27 65° 102° (ESE) 07:32:47 437.490
AO-7 27 May 07:28:54 07:34:44 22° 314° (NW) 07:40:35 29.400- 29.500
Cosmos 2499 27 May 07:29:39 07:32:13 11° 49° (NE) 07:34:48 435.465 / 435.565
HO-68 27 May 07:40:56 07:44:55 15° 87° (E) 07:48:53 435.675
AIST 1 27 May 07:48:18 07:51:46 23° 70° (ENE) 07:55:12
DOVE 4 27 May 07:48:29 07:52:29 32° 95° (E) 07:56:16 437.250
STRAND 1 27 May 07:49:05 07:54:04 53° 260° (W) 07:59:05 437.568
LilacSat-2 27 May 07:55:37 07:59:14 45° 288° (WNW) 08:02:51 437.200
BRITE-PL 27 May 08:06:29 08:11:24 42° 292° (WNW) 08:15:56 437.365/2234.400
CUTE-I 27 May 08:08:45 08:13:57 52° 291° (WNW) 08:19:08 437.470
SO-50 27 May 08:11:26 08:15:20 24° 37° (NE) 08:19:08 436.795
CINEMA 3 27 May 08:23:40 08:26:58 22° 93° (E) 08:30:14 145.822/145.860
AO-85 27 May 08:29:13 08:33:50 28° 321° (NW) 08:38:19 145.980
CANX-2 27 May 08:31:19 08:35:07 30° 95° (E) 08:38:54 2200.000
GOMX 1 27 May 08:34:17 08:38:49 43° 291° (WNW) 08:43:02 467.674
SEEDS 27 May 08:35:30 08:38:50 22° 93° (E) 08:42:09 437.485
PRISM 27 May 08:39:49 08:43:58 75° 257° (WSW) 08:48:10 437.425
NOAA 18 27 May 08:56:52 09:00:52 21° 301° (WNW) 09:04:53 137.9125
CUTE 1.7 + AOD 2 27 May 08:58:25 09:02:37 51° 99° (E) 09:06:47 437.475
NOAA 15 27 May 09:01:00 09:04:06 16° 304° (WNW) 09:07:10 137.62
Oscar 11 27 May 09:02:57 09:03:36 10° 87° (E) 09:04:16 145.826/435.025
GONETS M04 27 May 09:03:05 09:11:42 60° 76° (ENE) 09:20:16
AUBIESAT-1 27 May 09:03:07 09:06:16 40° 105° (ESE) 09:09:24 437.475
Cubesat XI-IV 27 May 09:03:10 09:07:03 21° 300° (WNW) 09:10:54 437.490
M-CUBED/EXP-1 PRIME 27 May 09:09:15 09:12:32 62° 107° (ESE) 09:15:46 437.505
ZACube-1 27 May 09:15:01 09:16:44 12° 89° (E) 09:18:28 437.345
CUBEBUG 2 27 May 09:16:40 09:20:12 26° 95° (E) 09:23:45 437.445
Cosmos 2499 27 May 09:19:29 09:27:43 50° 73° (ENE) 09:36:14 435.465 / 435.565
COMPASS 1 27 May 09:22:06 09:26:13 48° 99° (E) 09:30:18 437.405
AAUSAT CUBESAT 2 27 May 09:25:14 09:29:15 42° 98° (E) 09:33:14 437.432
AIST 1 27 May 09:25:30 09:29:30 36° 269° (W) 09:33:26
DOVE 4 27 May 09:26:23 09:30:05 26° 294° (WNW) 09:33:38 437.250
HO-68 27 May 09:26:31 09:33:44 80° 106° (ESE) 09:40:56 435.675
UNISAT 6 27 May 09:30:55 09:34:17 22° 65° (ENE) 09:37:38 437.425
TIGRISAT 27 May 09:38:26 09:41:59 25° 66° (ENE) 09:45:29 435.000
UWE-3 27 May 09:46:06 09:50:00 38° 98° (E) 09:53:57 435.000/436.395/437.385
PCSat 27 May 09:50:47 09:55:44 37° 112° (ESE) 10:00:42 145.827
SO-50 27 May 09:51:33 09:56:14 64° 238° (WSW) 10:00:45 436.795
FUNcube-1 27 May 09:51:51 09:55:29 28° 96° (E) 09:59:08 145.935
DELFI C3 27 May 10:00:09 10:03:09 20° 93° (E) 10:06:07 145.870
CINEMA 3 27 May 10:00:27 10:04:14 34° 291° (WNW) 10:07:59 145.822/145.860
CANX-2 27 May 10:07:15 10:10:54 28° 293° (WNW) 10:14:33 2200.000
SEEDS 27 May 10:10:44 10:14:40 37° 290° (WNW) 10:18:35 437.485
ANTELSAT 27 May 10:11:06 10:15:21 55° 72° (ENE) 10:19:34 437.575/2403.000
O/OREOS (USA 219) 27 May 10:12:04 10:16:37 76° 112° (ESE) 10:21:11 437.305
AO-85 27 May 10:14:54 10:16:05 11° 344° (NNW) 10:17:14 145.980
DUCHIFAT 1 27 May 10:20:52 10:22:59 14° 60° (ENE) 10:25:06 145.980
CUTE 1.7 + AOD 2 27 May 10:35:13 10:38:06 18° 297° (WNW) 10:40:57 437.475
Oscar 11 27 May 10:35:58 10:40:20 83° 282° (WNW) 10:44:40 145.826/435.025
AUBIESAT-1 27 May 10:38:41 10:40:31 14° 302° (WNW) 10:42:19 437.475
BUGSAT 1 27 May 10:41:57 10:43:10 11° 59° (ENE) 10:44:24 437.445
CUSAT 1 27 May 10:49:00 10:53:28 19° 78° (ENE) 10:58:26 437.405
ZACube-1 27 May 10:49:19 10:53:28 66° 286° (WNW) 10:57:40 437.345
CUBEBUG 2 27 May 10:53:13 10:56:49 29° 292° (WNW) 11:00:28 437.445
JAS-2 27 May 10:56:01 11:00:35 17° 49° (NE) 11:05:16 435.910
POPSAT HIP 1 27 May 10:56:31 11:00:17 32° 68° (ENE) 11:04:04 437.405
QB50P1 27 May 10:56:56 11:00:44 33° 68° (ENE) 11:04:32 145.935-145.965
COMPASS 1 27 May 10:58:33 11:01:26 18° 297° (WNW) 11:04:19 437.405
QB50P2 27 May 10:58:58 11:02:51 36° 69° (ENE) 11:06:45 145.880/145.840
GONETS M04 27 May 11:00:36 11:08:01 33° 277° (W) 11:15:25
AAUSAT CUBESAT 2 27 May 11:01:22 11:04:27 20° 295° (WNW) 11:07:32 437.432
POLYITAN 1 27 May 11:01:25 11:05:19 37° 69° (ENE) 11:09:13 437.675
HUMSAT D 27 May 11:01:32 11:05:29 42° 98° (E) 11:09:28 437.325/437.525
UNISAT 6 27 May 11:06:42 11:10:48 39° 262° (W) 11:14:52 437.425
Cosmos 2499 27 May 11:12:52 11:20:44 43° 273° (W) 11:28:51 435.465 / 435.565
TIGRISAT 27 May 11:14:33 11:18:32 34° 263° (W) 11:22:29 435.000
HO-68 27 May 11:15:13 11:20:44 25° 306° (NW) 11:26:13 435.675
NANOSAT C BR1 27 May 11:15:17 11:19:21 48° 72° (ENE) 11:23:26 145.865
UWE-3 27 May 11:23:06 11:26:17 22° 295° (WNW) 11:29:29 435.000/436.395/437.385
FUNcube-1 27 May 11:28:07 11:31:42 28° 292° (WNW) 11:35:20 145.935
BEESAT 2 27 May 11:32:31 11:34:52 15° 111° (ESE) 11:37:14 435.950
PCSat 27 May 11:34:01 11:39:06 40° 312° (NW) 11:44:13 145.827
DELFI C3 27 May 11:34:24 11:38:09 37° 290° (WNW) 11:41:53 145.870
AISAT 27 May 11:35:48 11:38:09 14° 90° (E) 11:40:29 437.250
UKube-1 27 May 11:46:49 11:48:12 11° 89° (E) 11:49:36 .
ANTELSAT 27 May 11:49:47 11:52:24 16° 269° (W) 11:55:01 437.575/2403.000
O/OREOS (USA 219) 27 May 11:53:46 11:56:36 16° 312° (NW) 11:59:25 437.305
DUCHIFAT 1 27 May 11:53:57 11:58:10 69° 258° (WSW) 12:02:23 145.980
BEESAT 3 27 May 12:06:16 12:10:08 57° 121° (ESE) 12:14:01 437.485
ESTCUBE 1 27 May 12:10:53 12:15:16 45° 99° (E) 12:19:37 437.505/2401.250
BUGSAT 1 27 May 12:13:42 12:17:55 86° 251° (WSW) 12:22:07 437.445
Oscar 11 27 May 12:15:02 12:15:44 10° 302° (WNW) 12:16:25 145.826/435.025
50 SAT 27 May 12:18:40 12:22:12 40° 98° (E) 12:25:44 437.505
DANDE 27 May 12:19:28 12:24:42 41° 88° (E) 12:31:21 436.750
Oscar 19 27 May 12:21:29 12:25:29 23° 61° (ENE) 12:29:29 437.125/150
CUSAT 1 27 May 12:27:51 12:34:18 89° 272° (W) 12:42:11 437.405
CUBEBUG 1 27 May 12:28:42 12:32:57 47° 99° (E) 12:37:09 437.445
DX 1 27 May 12:30:39 12:34:46 40° 98° (E) 12:38:51 434.975-435.025
POPSAT HIP 1 27 May 12:32:34 12:36:06 25° 265° (W) 12:39:39 437.405
QB50P1 27 May 12:33:03 12:36:33 25° 265° (W) 12:40:03 145.935-145.965
VELOX 1 27 May 12:34:36 12:38:57 52° 100° (E) 12:43:15 145.980
QB50P2 27 May 12:35:25 12:38:46 22° 266° (W) 12:42:08 145.880/145.840
JAS-2 27 May 12:36:48 12:44:07 66° 70° (ENE) 12:51:55 435.910
HUMSAT D 27 May 12:37:50 12:40:52 20° 295° (WNW) 12:43:54 437.325/437.525
POLYITAN 1 27 May 12:37:55 12:41:14 22° 266° (W) 12:44:33 437.675
Gurwin Techsat 1B 27 May 12:42:15 12:45:27 16° 57° (ENE) 12:48:40 435.225
NANOSAT C BR1 27 May 12:52:36 12:55:22 17° 268° (W) 12:58:08 145.865
SPROUT 27 May 12:57:27 13:01:27 38° 98° (E) 13:05:25 437.525
AO-7 27 May 12:57:52 13:01:22 13° 37° (NE) 13:04:52 29.400- 29.500
ITAMSAT 1 27 May 13:05:36 13:06:45 11° 53° (NE) 13:07:56 435.822/435.867
BEESAT 2 27 May 13:08:21 13:12:17 59° 309° (NW) 13:16:15 435.950
AISAT 27 May 13:10:40 13:15:04 64° 287° (WNW) 13:19:25 437.250
UKube-1 27 May 13:20:27 13:24:47 76° 286° (WNW) 13:29:06 .
PCSat 27 May 13:22:02 13:24:05 12° 335° (NNW) 13:26:07 145.827
TISAT 1 27 May 13:23:26 13:26:37 21° 93° (E) 13:29:46 437.305
AO-85 27 May 13:37:43 13:41:28 21° 34° (NE) 13:44:59 145.980
AIST 2 27 May 13:38:16 13:41:25 21° 113° (ESE) 13:44:35 435.215
BEESAT 3 27 May 13:45:08 13:48:08 20° 321° (NW) 13:51:10 437.485
ESTCUBE 1 27 May 13:48:18 13:51:47 22° 297° (WNW) 13:55:16 437.505/2401.250
50 SAT 27 May 13:53:12 13:55:40 17° 296° (WNW) 13:58:07 437.505
SWISSCUBE 27 May 13:57:32 13:59:03 11° 87° (E) 14:00:33 437.505
Oscar 19 27 May 13:59:20 14:04:26 55° 259° (W) 14:09:34 437.125/150
DANDE 27 May 14:02:13 14:07:36 38° 294° (WNW) 14:14:25 436.750
ITUPSAT 1 27 May 14:03:25 14:05:02 12° 88° (E) 14:06:40 437.325
CUBEBUG 1 27 May 14:05:46 14:08:55 20° 297° (WNW) 14:12:03 437.445
DX 1 27 May 14:07:19 14:10:45 23° 296° (WNW) 14:14:09 434.975-435.025
VELOX 1 27 May 14:11:59 14:15:03 19° 298° (WNW) 14:18:05 145.980
CUSAT 1 27 May 14:12:34 14:17:43 22° 304° (NW) 14:23:28 437.405
Cosmos 2491 27 May 14:17:40 14:25:12 30° 64° (ENE) 14:32:38 435.465 / 435.565
Gurwin Techsat 1B 27 May 14:19:24 14:24:44 83° 257° (WSW) 14:30:05 435.225
JAS-2 27 May 14:23:17 14:29:37 30° 270° (W) 14:36:20 435.910
BEESAT 27 May 14:25:39 14:29:09 20° 92° (E) 14:32:38 436.000
SPROUT 27 May 14:33:53 14:37:12 22° 295° (WNW) 14:40:30 437.525
ITAMSAT 1 27 May 14:40:08 14:45:14 65° 72° (ENE) 14:50:24 435.822/435.867
AO-7 27 May 14:44:20 14:52:06 46° 59° (ENE) 14:59:54 29.400- 29.500
BEESAT 2 27 May 14:49:21 14:50:58 12° 330° (NNW) 14:52:35 435.950
TISAT 1 27 May 14:58:32 15:02:25 38° 291° (WNW) 15:06:16 437.305
AIST 2 27 May 15:15:40 15:19:38 45° 312° (NW) 15:23:39 435.215
AO-85 27 May 15:17:48 15:22:34 76° 236° (WSW) 15:26:52 145.980
SWISSCUBE 27 May 15:32:40 15:37:30 88° 280° (W) 15:42:18 437.505
ITUPSAT 1 27 May 15:38:42 15:43:32 87° 283° (WNW) 15:48:21 437.325
MOZHAYETS 4 27 May 15:40:29 15:41:55 11° 87° (E) 15:43:21
RS-15 27 May 15:40:32 15:45:39 14° 93° (E) 15:50:50 29.354- 29.394
HORYU 2 27 May 15:52:39 15:56:06 23° 64° (ENE) 15:59:33 437.375
BEESAT 27 May 16:02:35 16:07:14 51° 290° (WNW) 16:11:51 436.000
STARS 27 May 16:02:57 16:04:41 12° 89° (E) 16:06:25 437.465
Gurwin Techsat 1B 27 May 16:03:46 16:05:30 11° 274° (W) 16:07:14 435.225
Cosmos 2491 27 May 16:14:06 16:22:47 68° 267° (W) 16:31:23 435.465 / 435.565
YUBILEINY 27 May 16:16:47 16:25:09 55° 90° (E) 16:33:32 435.215
ITAMSAT 1 27 May 16:21:44 16:25:11 18° 269° (W) 16:28:39 435.822/435.867
AO-7 27 May 16:36:58 16:44:51 47° 260° (W) 16:52:50 29.400- 29.500
PCSat 27 May 16:53:29 16:56:23 14° 29° (NNE) 16:59:17 145.827
AIST 2 27 May 16:58:05 16:59:10 11° 333° (NNW) 17:00:15 435.215
KKS-1 27 May 17:01:00 17:05:29 89° 263° (W) 17:09:53 437.445
NOAA 15 27 May 17:03:42 17:08:06 27° 62° (ENE) 17:12:31 137.62
NOAA 18 27 May 17:05:03 17:09:25 25° 61° (ENE) 17:13:49 137.9125
CUBESAT XI-V 27 May 17:06:00 17:06:40 10° 86° (E) 17:07:20 437.345
LilacSat-2 27 May 17:08:12 17:09:29 11° 61° (ENE) 17:10:45 437.200
Cubesat XI-IV 27 May 17:08:31 17:12:26 21° 60° (ENE) 17:16:21 437.490
SWISSCUBE 27 May 17:12:26 17:14:35 13° 303° (WNW) 17:16:43 437.505
MOZHAYETS 4 27 May 17:15:03 17:19:43 84° 283° (WNW) 17:24:21
ITUPSAT 1 27 May 17:18:31 17:20:39 13° 303° (WNW) 17:22:45 437.325
Cosmos 2504 27 May 17:25:32 17:32:09 40° 87° (E) 17:39:06 435.465 / 435.565
HORYU 2 27 May 17:28:16 17:32:25 41° 261° (W) 17:36:37 437.375
STARS 27 May 17:37:11 17:41:34 72° 286° (WNW) 17:45:54 437.465
BRITE-PL 27 May 17:40:09 17:45:26 42° 68° (ENE) 17:50:45 437.365/2234.400
